Regional Weather Roundup
Issued by NWS

Home | Current Version | Previous Version | Text Only | Print | Product List | Glossary Off
Versions: 1 2 3 4 5 6 7 8 9 10 11 12 13 14 15 16 17 18 19 20 21 22 23 24 25 26 27 28 29 30 31 32 33 34 35 36 37 38 39 40 41 42 43 44 45 46 47 48 49 50

000
ASUS43 KLOT 300110
RWRIL

ILLINOIS REGIONAL WEATHER ROUNDUP
NATIONAL WEATHER SERVICE CHICAGO/ROMEOVILLE IL
700 PM CST THU JAN 29 2015

NOTE: "FAIR" INDICATES FEW OR NO CLOUDS BELOW 12,000 FEET WITH NO
SIGNIFICANT WEATHER AND/OR OBSTRUCTIONS TO VISIBILITY.

* THESE STATIONS ARE NOT UNDER NWS QUALITY CONTROL. THEY ALSO MAY NOT
  REPORT WEATHER SUCH AS PRECIPITATION OR FOG.

ILZ001-002-007-009-015-016-024-300200-
NORTHWEST ILLINOIS

CITY           SKY/WX    TMP DP  RH WIND       PRES   REMARKS
MOLINE         CLOUDY    34  24  67 NW17G25   30.30R WCI  23
STERLING*      CLOUDY    34  27  75 NW13      30.26R WCI  25
SAVANNA*       CLOUDY    35  23  62 NW14      30.26R WCI  26
$$

ILZ003-004-008-010-011-017-018-300200-
NORTH CENTRAL ILLINOIS

CITY           SKY/WX    TMP DP  RH WIND       PRES   REMARKS
ROCKFORD       CLOUDY    34  21  59 NW13      30.24R WCI  25
FREEPORT*      CLOUDY    33  23  67 NW10      30.25R WCI  25
ROCHELLE*      CLOUDY    33  25  71 NW14G21   30.23R WCI  24
DE KALB*       CLOUDY    32  22  65 NW12      30.21R WCI  23
PERU*          CLOUDY    35  29  80 NW12      30.25R WCI  26
$$

ILZ005-006-012>014-019>023-300200-
NORTHEAST ILLINOIS

CITY           SKY/WX    TMP DP  RH WIND       PRES   REMARKS
CHICAGO-OHARE  CLOUDY    34  23  64 NW15      30.18R WCI  24
CHICAGO-MIDWAY CLOUDY    36  25  64 NW21G26   30.19R WCI  25
AURORA         CLOUDY    35  24  64 NW15      30.21R WCI  25
LANSING*       CLOUDY    35  25  66 NW9       30.19R WCI  28
JOLIET*        CLOUDY    34  26  71 NW6       30.21R WCI  29
WAUKEGAN       CLOUDY    34  21  59 NW13      30.17R WCI  25
DUPAGE AIRPORT CLOUDY    34  25  69 NW10      30.19R WCI  26
KANKAKEE*      CLOUDY    34  29  80 W8        30.21R WCI  28
WHEELING       CLOUDY    34  21  59 NW13G22   30.20R WCI  25
MORRIS*        CLOUDY    34  30  85 NW9       30.21R WCI  27
ROMEOVILLE*    CLOUDY    34  25  69 NW8       30.20R WCI  28
NORTHERLY ISL    N/A     36  23  59 NW15        N/A  WCI  27
$$

LMZ740>746-300200-
SOUTHERN LAKE MICHIGAN

STATION/POSITION SKY/WX   TEMP    WIND        PRES    VSBY  WAVE
                          AIR SEA DIR/SP/G                  HT/PER
                          (F)     (DEG/KT/KT) (MB)    (MI)  (FT/S)
WAUKEGAN HARBOR            35     320/ 12/ 22   N/A
HARRISON CRIB              35     320/ 22/ 29   N/A
BURNHAM HARBOR             36     290/ 13/ 18   N/A
CALUMET HARBOR             35     280/ 12/ 24   N/A
MICHIGAN CITY              34     290/ 17/ 20   N/A
$$

ILZ025>027-034>036-040-047-049-050-058-095>099-300200-
WEST-CENTRAL ILLINOIS

CITY           SKY/WX    TMP DP  RH WIND       PRES   REMARKS
QUINCY         CLOUDY    34  25  69 NW17      30.37R WCI  23
GALESBURG*     CLOUDY    33  28  81 NW14G21   30.32R WCI  23
MACOMB*        CLOUDY    34  28  81 NW24G30   30.36R WCI  21
JACKSONVILLE*  CLOUDY    36  28  75 NW17G24   30.35R WCI  25
PITTSFIELD*    CLOUDY    36  28  73 NW13G20   30.37R WCI  27
$$

ILZ028>032-037-038-041>044-048-051>054-059>061-300200-
CENTRAL ILLINOIS

CITY           SKY/WX    TMP DP  RH WIND       PRES   REMARKS
PONTIAC        CLOUDY    35  31  86 NW13      30.24R WCI  27
BLOOMINGTON    CLOUDY    34  30  85 NW16      30.26R WCI  24
DECATUR        CLOUDY    35  31  85 NW16G23   30.28R WCI  25
PEORIA         CLOUDY    35  27  72 NW9G24    30.30R WCI  28
LACON*         CLOUDY    34  28  78 NW14      30.26R WCI  24
LINCOLN*       CLOUDY    36  29  76 NW13G23   30.30R WCI  27
SPRINGFIELD    CLOUDY    35  27  72 NW16      30.32R WCI  25
TAYLORVILLE    CLOUDY    34  28  80 NW17G24   30.31R WCI  23
$$

ILZ033-039-045-046-055>057-062-063-300200-
EAST-CENTRAL ILLINOIS

CITY           SKY/WX    TMP DP  RH WIND       PRES   REMARKS
CHAMPAIGN      CLOUDY    34  31  88 NW13      30.24R WCI  25
DANVILLE*      CLOUDY    33  30  89 NW12      30.19R WCI  24
RANTOUL*       CLOUDY    36  31  83 NW16G24   30.22R WCI  26
MATTOON        CLOUDY    34  31  88 NW15      30.25R WCI  24
PARIS*         CLOUDY    34  32  92 NW10      30.24R WCI  26
$$

ILZ079-100>102-300200-
SOUTHWEST ILLINOIS

CITY           SKY/WX    TMP DP  RH WIND       PRES   REMARKS
ALTON          CLOUDY    36  28  75 NW20      30.35R WCI  25
BELLEVILLE     CLOUDY    38  30  72 NW17      30.34R WCI  28
CAHOKIA*       CLOUDY    39  29  67 NW17G25   30.36R WCI  30
SPARTA*        CLOUDY    39  31  72 NW15G26   30.34R WCI  31
$$

ILZ064>066-069>071-074>076-080>082-084>086-088>090-092>094-300200-
SOUTH-CENTRAL ILLINOIS

CITY           SKY/WX    TMP DP  RH WIND       PRES   REMARKS
CARBONDALE     CLOUDY    41  31  67 NW9       30.32R
CAIRO*         CLOUDY    44  32  62 NW9       30.33R
EFFINGHAM*     LGT RAIN  35  30  81 NW15G24   30.30R WCI  25
MARION         CLOUDY    41  34  75 NW5       30.32R
MT. VERNON     CLOUDY    37  30  75 NW6       30.32R WCI  33
CENTRALIA*     CLOUDY    36  29  76 NW15G22   30.32R WCI  27
SALEM*         CLOUDY    38  32  77 NW10      30.32R WCI  31
METROPOLIS*    CLOUDY    42  33  71 NW8       30.31R
$$

ILZ067-068-072-073-078-083-087-091-300200-
SOUTHEAST ILLINOIS

CITY           SKY/WX    TMP DP  RH WIND       PRES   REMARKS
LAWRENCEVILLE  CLOUDY    37  34  89 NW15      30.27R WCI  28
FLORA*         DRIZZLE   36  32  85 NW16G22   30.30R WCI  26
FAIRFIELD*     CLOUDY    38  32  78 NW8       30.29R WCI  32
HARRISBURG*    CLOUDY    39  34  80 NW12G18   30.32R WCI  32
ROBINSON*      CLOUDY    35  33  92 W10       30.26R WCI  28
CARMI*         CLOUDY    40  36  88 NW14G22   30.28R
$$

ABBREVIATIONS USED IN REMARKS
   TC - TEMPERATURE IN CELSIUS
  WCI - WIND CHILL INDEX
   HX - HEAT INDEX
  VSB - VISIBILITY
$$




USA.gov is the U.S. government's official web portal to all federal, state and local government web resources and services.